This is the latest recevied weather packets stored in our database for station/object EA5HRE-13. If no packets are shown the sender has not sent any weather packets the latest 10 day(s).
| Time | Temp. | Humidity | Pressure | Rain* | Wind** | Luminosity | Snow |
|---|---|---|---|---|---|---|---|
| 1787942827 | 26.11° C | 60% | 1017.1 hPa | 0 mm | - | - | - |
| 1787941926 | 26.67° C | 57% | 1017 hPa | 0 mm | - | - | - |
| 1787941026 | 26.67° C | 55% | 1016.9 hPa | 0 mm | - | - | - |
| 1787940125 | 27.22° C | 52% | 1016.8 hPa | 0 mm | - | - | - |
| 1787939224 | 27.22° C | 52% | 1016.9 hPa | 0 mm | - | - | - |
| 1787938324 | 27.78° C | 48% | 1016.9 hPa | 0 mm | - | - | - |
| 1787937424 | 27.78° C | 45% | 1016.9 hPa | 0 mm | - | - | - |
| 1787936523 | 27.78° C | 42% | 1016.9 hPa | 0 mm | - | - | - |
| 1787935623 | 28.33° C | 41% | 1016.9 hPa | 0 mm | - | - | - |
| 1787934723 | 28.33° C | 40% | 1017 hPa | 0 mm | - | - | - |
| 1787933822 | 28.33° C | 40% | 1017.1 hPa | 0 mm | - | - | - |
| 1787932922 | 28.33° C | 40% | 1017.2 hPa | 0 mm | - | - | - |
| 1787932021 | 27.78° C | 39% | 1017.3 hPa | 0 mm | - | - | - |
| 1787931121 | 28.33° C | 48% | 1016.9 hPa | 0 mm | - | - | - |
| 1787930221 | 28.33° C | 43% | 1016.9 hPa | 0 mm | - | - | - |
| 1787929321 | 28.89° C | 39% | 1016.9 hPa | 0 mm | - | - | - |
| 1787928420 | 29.44° C | 36% | 1017 hPa | 0 mm | - | - | - |
| 1787927520 | 29.44° C | 34% | 1017.1 hPa | 0 mm | - | - | - |
| 1787926619 | 29.44° C | 32% | 1017.2 hPa | 0 mm | - | - | - |
| 1787925719 | 30° C | 31% | 1017.3 hPa | 0 mm | - | - | - |
| 1787924818 | 29.44° C | 31% | 1017.4 hPa | 0 mm | - | - | - |
| 1787923919 | 29.44° C | 31% | 1017.5 hPa | 0 mm | - | - | - |
| 1787923017 | 29.44° C | 32% | 1017.5 hPa | 0 mm | - | - | - |
| 1787922118 | 29.44° C | 32% | 1017.6 hPa | 0 mm | - | - | - |
| 1787921216 | 28.89° C | 32% | 1017.7 hPa | 0 mm | - | - | - |
* Rain latest hour (hover to see other rain measurements)
** Current wind speed in m/s (hover to see current wind gust speed)